{"data":{"norad_id":68504,"intl_designator":"2026-067CS","name":"ICEYE-X72","alt_names":[],"object_type":"PAYLOAD","status":"ACTIVE","operator":null,"country":"FIN","launch_date":"2026-03-30","launch_site_code":"AFWTR","launch_vehicle":null,"mission":null,"orbit_class":"UNKNOWN","rcs_meters":null,"size_class":null,"mass_kg":null,"dimensions":null,"purposes":[],"wikipedia_slug":null,"has_3d_model":false,"image_url":null,"decayed_at":null,"tle_current":{"epoch":"2026-05-24T20:04:54.881184Z","epoch_age_seconds":83051,"freshness":"FRESH","line1":"1 68504U 26067CS  26144.83674631  .00002193  00000+0  22209-3 0  9991","line2":"2 68504  97.7614 103.4776 0003493  68.1411 292.0179 14.91958515  8249","mean_motion":14.91958515,"eccentricity":0.0003493,"inclination_deg":97.7614,"raan_deg":103.4776,"arg_perigee_deg":68.1411,"mean_anomaly_deg":292.0179,"bstar":0.00022209,"rev_number":824,"period_min":96.517428971542,"perigee_km":589.394660206,"apogee_km":594.26387864182,"semimajor_km":6969.9662694239,"source":"CELESTRAK","updated_at":"2026-05-25T13:38:07.880048Z"}}}